Temperature
15 15 15 15 14 14 14 14 14 15 15 15 15 15 15 15 15 14 14 15 15 15 15 14 14 14 14 14 14 14 15 15 15 15 15 15 15 15 15 15 15 15 15
15 15 14 14 14 14 14 14 14 14 14 14 14 14 14 14 14 14 14 14 14 14 14 14 14 14 14 14 14 14 14 14 14 14 14 14 14 14 14 15 15 15 15
15 14 14 14 14 14 14 14 14 14 14 14 14 14 14 14 14 14 14 14 14 14 14 14 14 14 14 14 14 14 14 14 14 14 14 14 14 14 14 14 14 14 14
15 14 14 14 14 14 14 14 14 14 14 14 14 14 14 14 14 14 14 13 14 13 14 14 14 14 13 13 13 13 14 14 14 14 14 14 14 14 14 14 14 14 14
14 14 14 14 14 14 14 14 14 14 14 13 13 13 13 13 13 13 13 13 13 13 13 13 13 13 13 13 13 13 13 13 13 13 13 13 13 14 14 14 14 14 14
14 14 14 14 14 14 14 14 14 14 13 13 13 13 13 13 13 13 13 13 13 13 13 13 13 13 13 13 13 13 13 13 13 13 13 13 13 13 13 13 13 13 13
14 14 14 14 14 14 14 14 13 13 13 13 13 13 13 13 13 13 13 13 13 13 13 13 13 13 12 13 13 13 13 13 13 13 13 13 13 13 13 13 13 13 13
14 14 14 14 14 14 13 13 13 13 13 13 13 14 14 13 12 13 13 13 12 12 12 12 12 12 12 12 13 13 13 13 13 13 13 13 12 12 12 12 12 12 12
14 14 14 14 14 13 13 13 13 13 13 13 13 13 14 14 13 12 12 12 12 12 12 12 12 12 12 12 12 12 13 13 12 12 12 12 12 12 12 12 12 12 12
14 14 14 14 14 14 14 13 13 13 13 13 13 13 13 13 13 13 13 12 12 12 12 12 12 12 12 12 12 12 12 12 12 12 12 12 12 12 12 12 11 11 11
14 14 14 14 14 14 14 13 13 13 13 13 13 13 13 13 13 13 13 13 12 12 12 12 12 12 12 11 12 12 12 12 12 12 12 12 12 12 12 11 11 11 11
14 14 14 14 14 14 14 13 13 13 13 13 13 13 13 13 13 13 13 13 13 12 12 12 12 12 12 11 11 12 12 12 12 12 12 12 12 12 12 11 11 11 11
14 14 14 14 14 14 14 14 13 13 13 13 13 13 13 13 13 13 13 13 12 12 12 12 12 12 11 11 11 11 11 11 11 12 11 11 11 11 11 11 11 11 11
15 14 14 14 14 14 14 14 14 13 13 13 13 13 13 13 13 13 12 12 13 13 12 12 12 12 11 11 11 11 11 11 11 11 11 11 11 11 11 11 11 11 11
14 14 14 14 14 14 14 14 14 13 13 13 13 13 13 13 13 13 12 12 13 13 13 12 12 11 11 11 11 11 11 11 11 11 11 11 11 11 11 11 11 11 11
14 14 14 14 14 14 14 14 13 13 13 13 13 13 13 13 13 13 12 12 12 12 13 12 12 11 11 11 11 11 11 11 11 11 11 11 11 11 11 11 11 11 10
14 14 14 14 14 14 14 13 13 13 13 13 13 13 13 13 12 13 12 12 12 12 12 12 11 11 11 11 11 11 11 11 11 11 11 11 10 10 10 10 10 10 10
14 14 14 14 13 13 13 13 13 13 13 13 13 13 13 13 12 12 12 12 12 12 12 12 12 11 11 11 11 11 11 11 10 11 11 11 10 10 10 10 10 10 10
14 14 14 13 13 13 13 13 13 13 13 13 13 13 12 12 12 12 12 12 12 12 12 12 12 11 11 11 11 11 11 10 10 11 11 11 10 10 10 10 10 10 10
13 13 13 13 13 13 13 13 13 13 13 13 13 12 12 12 12 12 12 12 12 12 12 11 11 11 11 11 11 11 10 10 10 10 10 10 10 10 10 10 10 10 10
13 13 13 13 13 13 12 13 13 12 12 12 12 12 12 12 12 12 12 12 12 12 12 11 11 11 11 11 11 11 10 10 10 10 10 10 10 10 10 10 10 10 10
13 13 12 12 12 12 12 12 12 12 12 12 12 12 12 12 12 12 12 12 12 11 11 11 11 11 11 11 11 11 10 10 10 10 10 10 10 10 10 9 10 10 9
12 12 12 12 12 12 12 12 12 12 12 12 12 12 12 12 12 12 12 12 12 11 11 11 11 11 11 11 11 10 10 10 10 10 10 9 10 10 9 9 10 9 9
12 12 12 12 11 12 12 12 12 12 11 11 11 11 11 11 11 11 11 11 11 11 11 11 11 11 11 10 10 10 10 10 9 9 9 9 9 9 9 9 9 9 9
11 11 11 11 11 11 11 11 11 11 11 11 11 11 11 11 11 11 11 11 11 11 11 11 11 10 11 10 10 10 9 9 9 9 9 9 9 9 9 9 9 9 9
11 11 11 11 11 11 11 11 11 11 10 10 11 10 11 11 11 11 10 10 10 10 10 10 10 10 10 10 10 10 9 9 9 9 9 9 9 8 8 9 9 9 9
Wind_Speed
5 5 5 5 6 6 6 6 6 8 8 8 9 9 9 9 9 9 10 14 14 13 13 12 12 12 12 12 12 12 12 12 12 11 10 10 10 9 8 8 7 6 6
4 4 5 5 5 5 5 6 6 6 6 7 8 9 9 9 9 9 9 11 14 14 13 13 12 12 12 12 12 12 12 12 12 11 11 10 10 10 9 8 7 7 6
4 4 4 4 4 5 5 5 6 5 5 6 7 8 8 8 8 8 8 7 9 13 14 14 13 13 12 12 12 12 12 12 12 11 11 11 11 11 10 9 9 8 8
4 4 3 3 4 4 4 4 4 4 5 5 5 5 6 6 8 8 8 8 8 8 11 13 13 13 12 12 12 12 12 12 11 11 10 11 12 12 11 10 9 9 9
3 4 3 3 4 3 3 3 3 3 4 4 5 5 5 5 6 7 8 8 8 8 8 10 12 13 12 11 11 11 11 11 12 12 11 11 11 11 11 11 10 9 9
3 3 3 3 3 3 3 3 4 3 3 3 4 4 4 4 5 6 6 7 7 8 8 8 7 10 11 11 10 10 10 10 10 11 11 11 11 11 11 10 10 10 10
3 3 2 2 2 2 2 3 3 3 2 2 2 3 3 4 4 4 4 5 6 6 6 7 7 6 6 9 9 9 9 9 9 9 10 9 9 10 10 10 10 10 10
3 3 3 2 3 2 2 2 2 2 2 0 0 0 1 3 2 3 3 3 4 4 5 6 6 6 6 5 8 9 8 8 8 8 8 8 8 8 9 9 9 10 10
3 3 3 3 3 3 2 2 2 2 1 1 1 1 1 1 1 2 3 2 3 3 3 4 4 5 5 5 5 8 8 7 7 7 6 6 6 6 7 8 8 9 9
3 3 3 3 3 3 3 3 3 2 2 1 1 1 2 1 1 1 2 2 2 2 2 2 3 4 4 5 6 7 7 7 6 6 5 5 5 6 6 7 7 8 8
3 3 4 4 4 3 4 3 3 3 2 1 1 1 0 0 1 1 0 0 1 1 1 1 2 2 3 3 3 6 7 6 6 7 6 5 5 6 6 6 6 6 7
3 4 4 4 4 3 4 4 4 4 3 2 2 2 2 1 1 1 1 1 0 0 0 0 0 1 1 2 3 6 6 6 6 6 6 6 6 6 7 6 6 6 6
3 4 4 4 4 4 4 4 4 4 4 4 3 3 2 2 2 2 2 1 1 0 0 1 1 0 1 1 2 3 4 4 5 6 6 6 7 7 7 6 5 5 5
4 4 5 5 5 4 4 4 4 4 3 4 4 4 3 3 3 3 2 2 2 1 2 1 1 1 1 1 3 1 3 4 4 4 4 4 5 6 5 5 5 4 4
3 5 5 5 5 5 5 5 4 4 4 3 3 4 3 2 3 3 3 4 3 2 1 1 1 1 1 1 2 2 2 5 3 3 2 3 4 4 4 5 5 5 4
4 5 5 5 5 5 5 5 5 4 4 4 3 4 3 3 2 3 3 3 3 3 2 1 1 1 2 2 2 2 2 5 2 2 2 3 4 4 4 5 5 5 5
5 5 5 6 5 5 6 6 6 5 5 5 5 5 5 4 3 3 3 3 3 3 3 2 2 2 2 2 3 3 2 3 3 4 3 3 3 3 3 3 3 4 4
5 5 5 6 6 6 6 6 6 6 6 6 6 5 5 4 5 4 4 4 4 4 4 3 3 3 3 3 2 3 3 2 2 4 4 3 2 3 3 3 3 3 3
5 5 6 6 6 6 6 6 6 6 6 7 6 6 6 6 6 5 5 5 5 4 4 4 3 2 3 3 3 3 3 2 2 3 4 4 4 4 5 4 4 4 3
5 5 5 6 6 6 7 7 7 6 6 6 6 7 7 7 7 6 6 6 5 5 5 5 4 3 3 3 4 3 3 3 3 3 3 3 4 5 6 6 6 5 5
4 5 5 5 5 5 5 6 6 6 7 7 6 6 6 5 5 5 5 6 6 5 5 5 5 5 4 4 4 4 4 3 3 3 3 3 4 4 6 7 8 7 7
4 4 5 5 5 5 3 5 6 6 7 7 7 7 6 5 6 7 6 6 7 7 7 6 6 6 6 6 5 5 5 5 3 3 4 3 3 4 4 5 6 8 8
4 4 5 5 5 4 3 4 7 7 7 7 7 6 5 5 6 6 7 9 9 9 8 8 8 7 6 6 6 7 6 6 5 3 4 4 4 5 4 4 7 8 8
4 4 5 5 5 4 3 3 5 8 7 8 7 7 7 7 6 6 6 7 8 9 9 9 8 8 6 5 6 6 6 6 5 4 4 5 4 4 4 4 7 9 9
4 4 4 4 5 5 3 4 4 6 6 7 7 7 7 7 5 6 7 7 7 6 6 8 7 5 3 3 5 5 5 6 5 5 5 4 4 4 5 5 7 11 11
4 4 4 4 5 5 2 4 5 5 6 6 6 6 6 7 4 6 7 7 7 6 5 5 6 6 6 7 9 8 7 7 6 5 5 5 5 4 4 5 5 7 9
Wind_Direction
90 88 83 80 79 80 81 77 74 71 66 63 62 61 61 62 61 63 64 58 57 60 64 69 67 67 69 69 69 68 66 66 66 65 67 70 74 78 84 90 91 96 98
93 90 89 85 79 78 77 79 77 73 69 67 65 63 61 61 58 58 62 65 61 58 60 64 65 65 71 71 70 68 66 66 66 67 66 68 72 74 78 81 83 88 91
97 98 90 89 87 86 87 82 81 75 76 77 72 65 61 57 57 56 56 60 67 64 59 58 60 64 69 70 70 68 67 66 66 68 69 70 71 72 74 78 80 84 88
101 96 94 93 100 94 91 87 86 84 83 77 73 67 66 60 54 52 57 59 58 62 66 58 59 59 64 67 68 68 65 64 63 65 68 71 72 71 71 74 80 83 86
116 112 99 102 107 103 96 93 84 86 86 80 82 74 66 61 53 52 57 56 57 57 64 70 66 59 59 63 65 66 65 64 63 64 67 71 74 74 72 72 74 82 84
130 122 126 123 114 112 107 104 97 94 88 88 86 79 71 70 57 49 49 54 53 55 55 57 65 70 63 59 58 62 64 65 65 65 67 69 72 73 73 73 74 77 80
146 138 143 133 134 124 119 122 116 118 113 101 104 97 95 77 60 56 47 51 57 53 54 54 51 50 71 70 54 56 61 61 65 67 68 68 70 75 77 76 77 79 79
164 165 170 157 154 144 148 141 144 141 117 106 6 110 138 126 82 61 57 50 47 51 48 48 51 45 45 59 64 55 54 56 59 64 67 69 73 78 82 85 83 82 80
183 187 184 174 177 180 169 175 180 175 149 117 10 337 334 49 85 101 65 55 46 38 44 40 43 43 47 52 58 59 49 49 53 54 62 69 76 83 89 91 88 86 85
190 192 188 187 190 194 189 196 197 200 202 185 115 356 348 10 310 113 122 86 58 36 26 33 33 39 43 53 55 52 46 41 45 41 48 67 84 93 94 94 92 88 88
192 191 196 200 202 204 206 210 204 215 219 239 242 230 227 221 278 305 31 79 102 70 46 32 42 48 48 54 56 60 55 50 48 45 51 66 86 93 98 96 94 91 90
199 200 202 209 211 213 213 215 220 216 228 235 245 241 241 250 248 264 274 267 313 54 98 73 56 65 54 63 69 68 60 53 55 51 54 67 81 92 99 98 96 98 95
208 208 207 214 216 220 223 220 226 228 225 231 241 253 259 260 257 248 251 266 288 242 199 205 159 139 105 87 94 90 78 65 65 59 60 70 81 86 92 96 99 98 93
218 213 216 218 219 224 228 221 230 230 233 233 240 243 247 248 235 231 242 251 254 231 207 185 156 182 170 144 99 147 103 94 76 70 64 75 87 88 90 91 94 98 95
217 213 215 220 222 222 226 222 224 227 235 241 242 236 236 235 229 228 230 238 257 266 242 169 180 176 189 169 145 182 136 105 99 90 78 89 95 94 97 95 97 93 89
219 215 215 222 223 220 221 221 227 228 229 228 238 245 235 231 225 225 227 233 251 264 269 169 186 183 182 190 164 191 133 118 130 125 109 120 120 111 105 100 96 97 92
224 222 220 221 223 224 225 221 222 222 229 230 227 232 232 227 220 217 218 224 232 241 243 240 202 196 203 209 176 197 201 205 178 158 153 147 148 144 132 123 117 111 103
223 223 220 219 222 223 225 227 228 224 228 232 234 234 233 220 227 223 216 221 223 228 236 243 214 204 217 217 209 210 210 209 206 148 162 174 178 179 171 164 151 145 139
220 220 221 223 224 223 222 226 229 229 231 233 234 238 238 230 228 223 222 227 223 219 228 238 230 201 216 213 214 218 221 217 222 180 180 194 200 204 196 192 186 183 183
224 224 225 227 229 227 224 225 227 230 234 235 238 242 242 237 237 231 225 229 224 219 218 227 228 216 215 211 216 222 224 215 223 212 197 199 198 205 206 204 203 203 205
234 233 227 225 228 233 231 232 232 233 235 235 240 245 246 246 256 249 242 233 223 222 217 222 227 224 221 210 220 220 223 223 225 220 215 213 206 214 211 210 209 211 212
240 237 231 228 228 231 231 240 246 237 237 238 241 244 240 231 229 224 233 244 243 233 226 224 232 232 233 226 222 222 224 226 235 209 222 234 218 226 221 217 192 195 206
238 242 241 237 235 229 204 229 242 243 240 242 245 246 242 235 227 233 219 220 230 239 245 241 239 243 242 232 218 220 224 231 240 221 216 237 227 234 227 213 183 197 207
238 241 247 245 244 242 208 228 239 240 242 241 242 244 241 237 224 229 233 231 233 230 227 235 245 251 252 242 229 230 229 231 239 221 211 243 234 234 229 218 187 199 209
252 250 250 247 247 246 210 220 230 248 246 244 242 240 239 239 217 217 229 235 237 236 224 230 252 258 267 245 234 229 221 220 234 231 214 234 242 239 237 227 202 200 209
262 259 254 251 252 259 219 205 223 244 249 248 244 239 231 238 216 208 227 234 237 238 233 224 226 228 229 219 215 225 226 229 236 235 207 217 232 229 240 227 217 210 213
Height
1552 1552 1552 1551 1551 1551 1551 1550 1550 1550 1550 1550 1549 1549 1548 1548 1547 1547 1546 1545 1544 1544 1543 1542 1542 1541 1540 1540 1539 1538 1538 1537 1537 1536 1535 1535 1534 1534 1534 1534 1534 1534 1534
1553 1553 1553 1553 1552 1552 1552 1552 1552 1552 1551 1551 1550 1550 1550 1549 1549 1548 1548 1547 1546 1545 1545 1544 1543 1542 1542 1541 1540 1540 1539 1538 1538 1537 1536 1536 1535 1535 1535 1535 1535 1535 1535
1554 1554 1554 1554 1554 1554 1554 1554 1553 1553 1552 1552 1552 1551 1551 1551 1550 1550 1549 1548 1548 1547 1546 1545 1544 1544 1543 1542 1542 1541 1540 1539 1539 1538 1537 1537 1536 1536 1536 1535 1535 1535 1535
1555 1555 1555 1555 1555 1555 1555 1554 1554 1554 1554 1554 1553 1553 1553 1552 1552 1551 1551 1550 1549 1549 1548 1547 1546 1545 1544 1544 1543 1542 1542 1541 1540 1539 1538 1538 1537 1537 1536 1536 1536 1536 1536
1556 1556 1555 1556 1556 1556 1555 1555 1555 1556 1555 1555 1554 1554 1554 1553 1553 1552 1552 1551 1550 1550 1549 1548 1547 1546 1545 1545 1545 1544 1543 1542 1541 1540 1540 1539 1539 1538 1538 1537 1537 1537 1537
1556 1556 1556 1556 1556 1556 1556 1556 1556 1556 1556 1556 1556 1555 1555 1554 1554 1553 1552 1552 1552 1551 1550 1550 1549 1548 1547 1546 1546 1545 1544 1543 1543 1542 1541 1540 1540 1539 1539 1538 1538 1538 1538
1556 1556 1556 1556 1556 1556 1556 1556 1556 1556 1556 1556 1556 1556 1556 1556 1555 1554 1553 1553 1552 1552 1551 1551 1550 1549 1549 1548 1547 1546 1545 1544 1543 1543 1542 1541 1540 1540 1539 1539 1539 1539 1539
1555 1556 1556 1556 1556 1556 1556 1556 1556 1557 1557 1556 1557 1557 1557 1558 1556 1555 1554 1553 1553 1553 1552 1552 1551 1550 1550 1549 1548 1547 1546 1545 1544 1543 1542 1541 1540 1540 1539 1539 1539 1539 1539
1555 1555 1556 1556 1556 1556 1556 1556 1556 1556 1557 1557 1557 1558 1557 1556 1557 1557 1555 1554 1554 1553 1553 1552 1552 1551 1551 1550 1549 1547 1546 1545 1544 1542 1541 1539 1539 1538 1539 1539 1540 1540 1540
1554 1555 1555 1555 1556 1556 1556 1556 1556 1556 1557 1557 1557 1556 1557 1557 1557 1557 1557 1555 1554 1553 1553 1552 1552 1551 1551 1550 1549 1548 1546 1545 1544 1542 1539 1537 1537 1537 1537 1539 1540 1540 1541
1553 1554 1554 1555 1555 1555 1555 1556 1556 1556 1556 1556 1557 1556 1556 1556 1556 1556 1556 1556 1555 1554 1553 1552 1552 1551 1550 1550 1549 1548 1546 1545 1543 1541 1538 1536 1535 1535 1537 1538 1540 1541 1541
1552 1552 1553 1553 1554 1554 1554 1555 1555 1555 1555 1555 1556 1556 1556 1556 1556 1556 1555 1555 1555 1554 1553 1552 1552 1551 1550 1549 1548 1547 1546 1545 1543 1541 1539 1536 1535 1536 1537 1539 1540 1541 1542
1550 1551 1551 1552 1552 1553 1553 1553 1554 1554 1554 1554 1554 1554 1554 1555 1555 1555 1555 1554 1554 1554 1552 1552 1551 1550 1550 1549 1548 1547 1546 1545 1543 1542 1540 1539 1538 1538 1539 1540 1541 1542 1542
1548 1549 1549 1550 1551 1551 1551 1551 1552 1552 1553 1553 1553 1553 1553 1553 1553 1553 1554 1554 1553 1553 1552 1552 1550 1550 1549 1549 1548 1547 1546 1545 1543 1542 1542 1541 1540 1540 1540 1541 1541 1542 1542
1547 1547 1547 1548 1549 1549 1549 1550 1550 1550 1551 1551 1551 1551 1551 1551 1551 1551 1551 1552 1553 1552 1552 1551 1550 1549 1548 1548 1547 1547 1546 1545 1544 1543 1542 1542 1542 1541 1541 1542 1542 1542 1542
1544 1545 1545 1546 1546 1547 1547 1548 1548 1548 1549 1549 1549 1549 1549 1550 1549 1549 1549 1550 1550 1551 1550 1550 1549 1548 1547 1547 1546 1546 1546 1544 1544 1543 1542 1542 1542 1542 1542 1542 1542 1542 1542
1541 1542 1543 1543 1544 1544 1545 1545 1545 1546 1546 1547 1547 1547 1547 1547 1548 1548 1548 1548 1548 1549 1549 1549 1548 1547 1546 1546 1545 1545 1545 1544 1544 1543 1543 1542 1542 1542 1542 1542 1541 1541 1541
1538 1539 1540 1540 1541 1541 1542 1542 1543 1543 1544 1544 1545 1545 1545 1545 1545 1546 1546 1546 1546 1546 1547 1547 1546 1545 1545 1545 1544 1544 1544 1544 1543 1542 1542 1542 1541 1541 1541 1541 1541 1541 1541
1536 1536 1537 1537 1538 1538 1538 1539 1540 1540 1541 1541 1542 1542 1543 1543 1543 1543 1543 1544 1544 1544 1544 1544 1544 1543 1543 1543 1543 1542 1542 1542 1542 1541 1541 1540 1540 1540 1540 1540 1540 1540 1540
1532 1533 1533 1534 1534 1535 1535 1536 1537 1537 1538 1538 1539 1539 1540 1540 1540 1541 1541 1541 1541 1541 1541 1542 1542 1541 1541 1541 1540 1540 1540 1540 1540 1540 1539 1539 1538 1538 1538 1538 1538 1538 1538
1529 1529 1530 1530 1531 1531 1532 1533 1533 1534 1534 1535 1535 1536 1536 1536 1537 1537 1537 1538 1538 1538 1538 1538 1539 1539 1538 1538 1538 1538 1538 1538 1538 1537 1537 1537 1537 1536 1536 1536 1536 1536 1536
1526 1526 1526 1527 1527 1527 1528 1528 1529 1530 1530 1531 1531 1532 1532 1532 1532 1533 1533 1534 1535 1535 1535 1535 1535 1535 1535 1535 1535 1535 1535 1536 1535 1535 1535 1535 1534 1534 1534 1534 1533 1533 1533
1523 1523 1523 1523 1523 1524 1524 1524 1524 1525 1526 1527 1527 1527 1527 1527 1528 1529 1529 1529 1530 1530 1531 1532 1532 1532 1532 1532 1532 1532 1532 1532 1532 1532 1532 1532 1532 1531 1531 1531 1531 1531 1531
1519 1519 1519 1519 1520 1520 1520 1520 1520 1521 1521 1522 1522 1523 1523 1523 1523 1524 1524 1525 1525 1526 1526 1527 1528 1528 1529 1529 1529 1529 1529 1529 1529 1529 1529 1529 1529 1528 1528 1528 1527 1527 1527
1516 1516 1516 1515 1516 1516 1516 1516 1516 1516 1517 1517 1518 1518 1518 1518 1518 1519 1520 1520 1521 1521 1522 1522 1523 1523 1523 1524 1524 1524 1525 1525 1525 1525 1525 1525 1525 1525 1525 1524 1524 1524 1524
1512 1512 1512 1512 1512 1512 1512 1512 1512 1512 1512 1513 1512 1512 1513 1513 1514 1514 1515 1516 1516 1517 1517 1518 1518 1518 1518 1518 1519 1520 1520 1521 1521 1521 1521 1521 1521 1522 1521 1521 1520 1520 1520